Fairbanks Eiels, AK

6:09 AM AKDT on September 19, 2017 (GMT -0800)
Eielson Air Force Base

Weather History for PAEI - September, 2012

Change the Weather History Date:

Friday, September 28, 2012

  Actual Average Record
Temperature  
Mean Temperature 36 °F -  
Max Temperature 40 °F 44 °F 60 °F (1966)
Min Temperature 31 °F 26 °F -41 °F (1971)
Degree Days  
Heating Degree Days 29    
Moisture  
Dew Point 32 °F    
Average Humidity 82    
Maximum Humidity 90    
Minimum Humidity 75    
Precipitation  
Precipitation 0.00 in - - ()
Sea Level Pressure  
Sea Level Pressure 29.30 in    
Wind  
Wind Speed 4 mph (WSW)    
Max Wind Speed 8 mph    
Max Gust Speed -    
Visibility 10 miles    
Events      
Averages and records for this station are not official NWS values.
T = Trace of Precipitation, MM = Missing Value Source: NWS Daily Summary

Daily Weather History Graph

Daily Weather History Graph

Search for Another Location

Airport or City:

Trip Planner

Search our weather history database for the weather conditions in past years. The results will help you decide how hot, cold, wet, or windy it might be!

Date:

Astronomy

Sep. 28, 2012 Rise Set
Actual Time 7:50 AM AKDT 7:25 PM AKDT
Civil Twilight 7:02 AM AKDT 8:13 PM AKDT
Nautical Twilight 6:04 AM AKDT 9:10 PM AKDT
Astronomical Twilight 5:00 AM AKDT 10:14 PM AKDT
Moon 6:32 PM AKDT (9/28) 6:19 AM AKDT (9/28)
Length of Visible Light 13h 10m
Length of Day
11h 34m
Waxing Gibbous, 98% of the Moon is Illuminated
Sep 28
Waxing Gibbous
Sep 29
Full
Oct 7
Last Quarter
Oct 15
New
Oct 21
First Quarter

Hourly Weather History & Observations

Time (AKDT) Temp. Windchill Dew Point Humidity Pressure Visibility Wind Dir Wind Speed Gust Speed Precip Events Conditions
12:55 AM 36.1 °F 33.5 °F 32.7 °F 87% 29.11 in 10.0 mi South 3.5 mph - N/A   Mostly Cloudy
1:55 AM 34.9 °F 30.8 °F 31.6 °F 88% 29.13 in 10.0 mi South 4.6 mph - N/A   Partly Cloudy
2:55 AM 33.8 °F 28.6 °F 30.7 °F 89% 29.15 in 10.0 mi South 5.8 mph - N/A   Mostly Cloudy
3:55 AM 33.1 °F 27.7 °F 30.4 °F 90% 29.16 in 10.0 mi South 5.8 mph - N/A   Overcast
4:55 AM 31.6 °F 27.0 °F 29.1 °F 90% 29.16 in 10.0 mi South 4.6 mph - N/A   Overcast
5:55 AM 32.2 °F 28.9 °F 29.3 °F 89% 29.16 in 10.0 mi South 3.5 mph - N/A   Mostly Cloudy
6:55 AM 32.7 °F 28.3 °F 29.7 °F 88% 29.17 in 10.0 mi SSE 4.6 mph - N/A   Mostly Cloudy
7:55 AM 33.1 °F - 29.7 °F 87% 29.18 in 10.0 mi Calm Calm - N/A   Scattered Clouds
8:55 AM 32.9 °F - 30.0 °F 89% 29.19 in 10.0 mi Calm Calm - N/A   Mostly Cloudy
9:55 AM 35.2 °F - 32.0 °F 88% 29.22 in 10.0 mi Calm Calm - N/A   Mostly Cloudy
10:55 AM 35.4 °F - 32.4 °F 89% 29.24 in 10.0 mi Calm Calm - N/A   Mostly Cloudy
11:55 AM 38.3 °F - 34.0 °F 84% 29.25 in 10.0 mi Calm Calm - N/A   Scattered Clouds
12:12 PM 39.2 °F 35.9 °F 33.8 °F 81% 29.26 in 10.0 mi West 4.6 mph - N/A   Mostly Cloudy
12:26 PM 39.2 °F 34.2 °F 33.8 °F 81% 29.24 in 10.0 mi SW 6.9 mph - N/A   Overcast
12:55 PM 38.8 °F 34.6 °F 34.2 °F 83% 29.28 in 10.0 mi West 5.8 mph - N/A   Overcast
1:55 PM 39.9 °F 34.5 °F 34.3 °F 80% 29.30 in 10.0 mi WSW 8.1 mph - N/A   Overcast
2:55 PM 39.4 °F 34.5 °F 33.3 °F 79% 29.33 in 10.0 mi WNW 6.9 mph - N/A   Overcast
3:53 PM 41.0 °F 39.0 °F 33.8 °F 76% 29.34 in 10.0 mi NW 3.5 mph - N/A   Overcast
3:55 PM 40.1 °F 36.9 °F 33.3 °F 77% 29.35 in 10.0 mi WNW 4.6 mph - N/A   Overcast
4:15 PM 39.2 °F 37.0 °F 33.8 °F 81% 29.36 in 10.0 mi NW 3.5 mph - N/A   Overcast
4:22 PM 39.2 °F 35.9 °F 33.8 °F 81% 29.36 in 10.0 mi WNW 4.6 mph - N/A   Overcast
4:55 PM 39.0 °F 34.8 °F 32.5 °F 78% 29.36 in 10.0 mi WNW 5.8 mph - N/A   Overcast
5:17 PM 39.2 °F 35.9 °F 32.0 °F 75% 29.37 in 10.0 mi NW 4.6 mph - N/A   Overcast
5:55 PM 38.8 °F 35.4 °F 32.0 °F 76% 29.39 in 10.0 mi West 4.6 mph - N/A   Overcast
6:38 PM 37.4 °F 33.8 °F 32.0 °F 81% 29.39 in 10.0 mi NW 4.6 mph - N/A   Overcast
6:55 PM 38.1 °F 35.7 °F 31.3 °F 76% 29.40 in 10.0 mi WNW 3.5 mph - N/A   Overcast
7:55 PM 37.6 °F - 30.7 °F 76% 29.42 in 10.0 mi Calm Calm - N/A   Overcast
8:55 PM 37.4 °F - 31.1 °F 78% 29.44 in 10.0 mi Calm Calm - N/A   Overcast
9:55 PM 36.7 °F 34.1 °F 29.7 °F 76% 29.47 in 10.0 mi WSW 3.5 mph - N/A   Overcast
10:55 PM 35.6 °F - 29.5 °F 78% 29.48 in 10.0 mi Calm Calm - N/A   Overcast
11:34 PM 35.6 °F 32.8 °F 30.2 °F 81% 29.50 in 10.0 mi SW 3.5 mph - N/A   Overcast
11:55 PM 34.9 °F - 29.1 °F 79% 29.50 in 10.0 mi Calm Calm - N/A   Overcast